This demonstration page uses our WeatherBlox Daily Observations layout. Learn more.

Left ArrowRight Arrow

Hourly Observations for January 26, 2015

Temp ( °F °C ) Dew Point ( °F °C ) Humidity (%) Winds ( mph kmh ) Pressure ( in mb ) Visibility ( mi km ) Precip ( " mm )
12:15 am 00:15 Cloudy 23 -5 14 -10 68 68 NNE 14 22 29.88 1012 10 16.0934 N/A
12:35 am 00:35 Cloudy 21 -6 14 -10 74 74 N 15 24 29.91 1013 10 16.0934 N/A
12:55 am 00:55 Cloudy 21 -6 12 -11 68 68 N 23 37 29.91 1013 10 16.0934 N/A
1:15 am 01:15 Cloudy 21 -6 14 -10 74 74 NNE 22 35 29.91 1013 10 16.0934 N/A
1:36 am 01:36 Cloudy 21 -6 12 -11 68 68 N 18 30 29.91 1013 10 16.0934 N/A
1:55 am 01:55 Cloudy 21 -6 12 -11 68 68 N 16 26 29.91 1013 10 16.0934 N/A
2:15 am 02:15 Cloudy 21 -6 12 -11 68 68 N 17 28 29.94 1014 10 16.0934 N/A
2:36 am 02:36 Cloudy 21 -6 10 -12 63 63 NNE 16 26 29.91 1013 10 16.0934 N/A
2:55 am 02:55 Mostly Cloudy 21 -6 12 -11 68 68 NNE 17 28 29.94 1014 10 16.0934 N/A
3:15 am 03:15 Mostly Cloudy 21 -6 12 -11 68 68 N 16 26 29.94 1014 10 16.0934 N/A
3:35 am 03:35 Cloudy 21 -6 12 -11 68 68 N 18 30 29.94 1014 10 16.0934 N/A
3:55 am 03:55 Cloudy 21 -6 10 -12 63 63 N 16 26 29.94 1014 10 16.0934 N/A
4:16 am 04:16 Cloudy 21 -6 10 -12 63 63 N 17 28 29.94 1014 10 16.0934 N/A
4:35 am 04:35 Cloudy 21 -6 10 -12 63 63 N 17 28 29.94 1014 10 16.0934 N/A
4:55 am 04:55 Cloudy 21 -6 10 -12 63 63 N 13 20 29.94 1014 10 16.0934 N/A
5:16 am 05:16 Cloudy 21 -6 10 -12 63 63 N 15 24 29.97 1015 10 16.0934 N/A
5:35 am 05:35 Cloudy 21 -6 9 -13 58 58 N 12 19 29.97 1015 10 16.0934 N/A
5:55 am 05:55 Cloudy 21 -6 10 -12 63 63 N 10 17 29.97 1015 10 16.0934 N/A
6:16 am 06:16 Cloudy 21 -6 10 -12 63 63 N 13 20 29.97 1015 10 16.0934 N/A
6:35 am 06:35 Mostly Cloudy 19 -7 9 -13 63 63 NNE 9 15 30 1016 10 16.0934 N/A
6:55 am 06:55 Clear 19 -7 9 -13 63 63 N 7 11 30 1016 10 16.0934 N/A
7:15 am 07:15 Clear 19 -7 9 -13 63 63 N 8 13 30 1016 10 16.0934 N/A
7:35 am 07:35 Clear 19 -7 9 -13 63 63 N 7 11 30 1016 10 16.0934 N/A
7:56 am 07:56 Clear 18 -8 9 -13 68 68 N 7 11 30.03 1017 10 16.0934 N/A
8:15 am 08:15 Sunny 18 -8 9 -13 68 68 N 6 9 30.03 1017 10 16.0934 N/A
8:36 am 08:36 Sunny 18 -8 9 -13 68 68 N 6 9 30.03 1017 10 16.0934 N/A
8:55 am 08:55 Sunny 19 -7 9 -13 63 63 NNW 6 9 30.03 1017 10 16.0934 N/A
9:15 am 09:15 Sunny 21 -6 7 -14 54 54 NNW 7 11 30.03 1017 10 16.0934 N/A
9:35 am 09:35 Sunny 21 -6 7 -14 54 54 NNW 8 13 30.03 1017 10 16.0934 N/A
9:55 am 09:55 Sunny 23 -5 7 -14 50 50 N 5 7 30 1016 10 16.0934 N/A
10:16 am 10:16 Sunny 23 -5 7 -14 50 50 N 3 6 30 1016 10 16.0934 N/A
10:35 am 10:35 Sunny 23 -5 7 -14 50 50 NNW 5 7 30 1016 10 16.0934 N/A
10:55 am 10:55 Sunny 23 -5 9 -13 54 54 NW 6 9 30.03 1017 10 16.0934 N/A
11:15 am 11:15 Sunny 25 -4 9 -13 50 50 NNW 5 7 30.03 1017 10 16.0934 N/A
11:35 am 11:35 Sunny 25 -4 9 -13 50 50 NNW 8 13 30 1016 10 16.0934 N/A
11:56 am 11:56 Sunny 27 -3 10 -12 50 50 NW 7 11 30 1016 10 16.0934 N/A
12:15 pm 12:15 Sunny 27 -3 10 -12 50 50 WNW 6 9 30 1016 10 16.0934 N/A
12:35 pm 12:35 Sunny 28 -2 10 -12 47 47 WNW 8 13 30 1016 10 16.0934 N/A
12:55 pm 12:55 Sunny 28 -2 10 -12 47 47 W 5 7 29.97 1015 10 16.0934 N/A
1:15 pm 13:15 Sunny 28 -2 10 -12 47 47 N 3 6 29.97 1015 10 16.0934 N/A
1:35 pm 13:35 Sunny 30 -1 10 -12 43 43 W 8 13 29.97 1015 10 16.0934 N/A
1:55 pm 13:55 Sunny 30 -1 10 -12 43 43 WNW 5 7 29.94 1014 10 16.0934 N/A
2:15 pm 14:15 Sunny 30 -1 9 -13 40 40 NW 6 9 29.94 1014 10 16.0934 N/A
2:35 pm 14:35 Partly Cloudy 30 -1 12 -11 47 47 NW 5 7 29.94 1014 10 16.0934 N/A
2:55 pm 14:55 Mostly Cloudy 30 -1 12 -11 47 47 W 6 9 29.94 1014 10 16.0934 N/A
3:15 pm 15:15 Partly Cloudy 28 -2 12 -11 51 51 WNW 9 15 29.97 1015 10 16.0934 N/A
3:36 pm 15:36 Sunny 28 -2 12 -11 51 51 WNW 8 13 29.97 1015 10 16.0934 N/A
3:55 pm 15:55 Sunny 28 -2 12 -11 51 51 W 6 9 29.97 1015 10 16.0934 N/A
4:15 pm 16:15 Sunny 28 -2 12 -11 51 51 W 6 9 29.97 1015 10 16.0934 N/A
4:36 pm 16:36 Mostly Cloudy 28 -2 12 -11 51 51 W 3 6 29.97 1015 10 16.0934 N/A
4:55 pm 16:55 Mostly Cloudy 28 -2 12 -11 51 51 Calm 29.97 1015 10 16.0934 N/A
5:16 pm 17:16 Mostly Cloudy 28 -2 14 -10 55 55 NNW 5 7 29.97 1015 10 16.0934 N/A
5:35 pm 17:35 Mostly Cloudy 28 -2 12 -11 51 51 NW 3 6 29.97 1015 10 16.0934 N/A
5:55 pm 17:55 Cloudy 28 -2 14 -10 55 55 W 3 6 29.97 1015 10 16.0934 N/A
6:15 pm 18:15 Mostly Cloudy 28 -2 16 -9 59 59 W 5 7 29.97 1015 10 16.0934 N/A
6:35 pm 18:35 Mostly Cloudy 28 -2 14 -10 55 55 WSW 5 7 29.97 1015 10 16.0934 N/A
6:55 pm 18:55 Cloudy 28 -2 16 -9 59 59 W 5 7 29.97 1015 10 16.0934 N/A
7:15 pm 19:15 Partly Cloudy 27 -3 16 -9 64 64 ENE 3 6 29.97 1015 10 16.0934 N/A
7:35 pm 19:35 Mostly Cloudy 27 -3 16 -9 64 64 Calm 29.97 1015 10 16.0934 N/A
7:56 pm 19:56 Mostly Cloudy 27 -3 16 -9 64 64 E 3 6 29.97 1015 10 16.0934 N/A
8:15 pm 20:15 Mostly Cloudy 27 -3 16 -9 64 64 E 3 6 29.97 1015 10 16.0934 N/A
8:35 pm 20:35 Cloudy 27 -3 16 -9 64 64 Calm 30 1016 10 16.0934 N/A
8:55 pm 20:55 Mostly Cloudy 27 -3 16 -9 64 64 Calm 29.97 1015 10 16.0934 N/A
9:15 pm 21:15 Mostly Cloudy 27 -3 16 -9 64 64 Calm 30 1016 10 16.0934 N/A
9:36 pm 21:36 Cloudy 27 -3 16 -9 64 64 Calm 29.97 1015 10 16.0934 N/A
9:55 pm 21:55 Cloudy 27 -3 18 -8 69 69 ENE 5 7 29.97 1015 10 16.0934 N/A
10:15 pm 22:15 Cloudy 27 -3 18 -8 69 69 ENE 5 7 29.97 1015 10 16.0934 N/A
10:36 pm 22:36 Cloudy 27 -3 18 -8 69 69 E 5 7 29.97 1015 10 16.0934 N/A
10:55 pm 22:55 Cloudy 27 -3 18 -8 69 69 E 6 9 29.97 1015 10 16.0934 N/A
11:15 pm 23:15 Cloudy 27 -3 18 -8 69 69 E 6 9 30 1016 10 16.0934 N/A
11:36 pm 23:36 Mostly Cloudy 27 -3 18 -8 69 69 ESE 6 9 30 1016 10 16.0934 N/A
11:55 pm 23:55 Mostly Cloudy 27 -3 16 -9 64 64 ESE 7 11 29.97 1015 10 16.0934 N/A

Powered by AerisWeather